When you browse on this site, cookies collect data to enhance your experience and personalize the content and advertising you see.
Visit our Privacy Policy to learn more. By continuing to use the site, you agree to this use of cookies and data.
  • In Czech Republic
  • List of Countries
  • For 7 days
  • Water Temperature
  • Weather Map
  • Weather Widgets
  • user-avatar
    Login

    Hourly Weather Kitzbuhel

    Today, 8 April, Wednesday

    Time Temperature Precipitation Wind Pressure Humidity
    00:00 +6°C° 0 mm 2 mps 684 mmHg 70%
    01:00 +5°C° 0 mm 2 mps 684 mmHg 67%
    02:00 +5°C° 0 mm 2 mps 684 mmHg 67%
    03:00 +5°C° 0 mm 2 mps 684 mmHg 66%
    04:00 +4°C° 0 mm 2 mps 683 mmHg 66%
    05:00 +5°C° 0 mm 2 mps 684 mmHg 64%
    06:00 +6°C° 0 mm 2 mps 684 mmHg 63%
    07:00 +8°C° 0 mm 1 mps 684 mmHg 61%
    08:00 +11°C° 0 mm 1 mps 684 mmHg 55%
    09:00 +14°C° 0 mm 1 mps 684 mmHg 49%
    10:00 +16°C° 0 mm 0 mps 685 mmHg 43%
    11:00 +18°C° 0 mm 1 mps 684 mmHg 41%
    12:00 +19°C° 0 mm 1 mps 684 mmHg 40%
    13:00 +19°C° 0 mm 1 mps 684 mmHg 39%
    14:00 +19°C° 0 mm 1 mps 683 mmHg 42%
    15:00 +17°C° 0 mm 2 mps 683 mmHg 45%
    16:00 +17°C° 0 mm 2 mps 682 mmHg 47%
    17:00 +14°C° 0 mm 1 mps 682 mmHg 60%
    18:00 +12°C° 0 mm 1 mps 681 mmHg 73%
    19:00 +9°C° 0 mm 0 mps 681 mmHg 86%
    20:00 +8°C° 0 mm 0 mps 681 mmHg 86%
    21:00 +9°C° 0 mm 1 mps 681 mmHg 87%
    22:00 +8°C° 0 mm 1 mps 682 mmHg 87%
    23:00 +8°C° 0 mm 1 mps 682 mmHg 88%

    Tomorrow, 9 April, Thursday

    Time Temperature Precipitation Wind Pressure Humidity
    00:00 +8°C° 0 mm 1 mps 682 mmHg 89%
    01:00 +8°C° 0 mm 1 mps 682 mmHg 89%
    02:00 +7°C° 0 mm 1 mps 681 mmHg 90%
    03:00 +7°C° 0 mm 1 mps 681 mmHg 90%
    04:00 +7°C° 0 mm 1 mps 681 mmHg 91%
    05:00 +8°C° 0 mm 1 mps 681 mmHg 89%
    06:00 +8°C° 0 mm 0 mps 681 mmHg 86%
    07:00 +8°C° 0 mm 0 mps 682 mmHg 84%
    08:00 +11°C° 0.1 mm 1 mps 682 mmHg 76%
    09:00 +13°C° 0.1 mm 1 mps 682 mmHg 69%
    10:00 +15°C° 0.1 mm 1 mps 682 mmHg 61%
    11:00 +15°C° 0.1 mm 1 mps 682 mmHg 58%
    12:00 +16°C° 0.1 mm 1 mps 682 mmHg 55%
    13:00 +16°C° 0.1 mm 1 mps 682 mmHg 52%
    14:00 +16°C° 0.1 mm 1 mps 681 mmHg 56%
    15:00 +15°C° 0.1 mm 2 mps 681 mmHg 60%
    16:00 +15°C° 0.1 mm 2 mps 681 mmHg 64%
    17:00 +13°C° 0.1 mm 1 mps 681 mmHg 72%
    18:00 +11°C° 0.1 mm 1 mps 681 mmHg 80%
    19:00 +10°C° 0.1 mm 1 mps 680 mmHg 87%
    20:00 +9°C° 0 mm 1 mps 681 mmHg 88%
    21:00 +9°C° 0 mm 1 mps 681 mmHg 89%
    22:00 +8°C° 0 mm 1 mps 681 mmHg 90%
    23:00 +8°C° 0 mm 1 mps 681 mmHg 90%

    Day after tomorrow, 10 April, Friday

    Time Temperature Precipitation Wind Pressure Humidity
    00:00 +7°C° 0 mm 1 mps 681 mmHg 90%
    01:00 +7°C° 0 mm 1 mps 681 mmHg 91%
    02:00 +7°C° 0 mm 1 mps 681 mmHg 91%
    03:00 +6°C° 0 mm 1 mps 681 mmHg 90%
    04:00 +6°C° 0 mm 1 mps 681 mmHg 90%
    05:00 +7°C° 0 mm 1 mps 681 mmHg 87%
    06:00 +8°C° 0 mm 1 mps 681 mmHg 84%
    07:00 +9°C° 0 mm 1 mps 682 mmHg 81%
    08:00 +11°C° 0 mm 1 mps 682 mmHg 72%
    09:00 +14°C° 0 mm 1 mps 682 mmHg 63%
    10:00 +16°C° 0 mm 1 mps 683 mmHg 54%
    11:00 +18°C° 0 mm 1 mps 683 mmHg 50%
    12:00 +18°C° 0 mm 1 mps 682 mmHg 46%
    13:00 +18°C° 0 mm 2 mps 682 mmHg 43%
    14:00 +17°C° 0 mm 2 mps 682 mmHg 44%
    15:00 +17°C° 0 mm 2 mps 682 mmHg 46%
    16:00 +17°C° 0 mm 2 mps 681 mmHg 48%
    17:00 +14°C° 0 mm 1 mps 680 mmHg 60%
    18:00 +12°C° 0 mm 1 mps 680 mmHg 73%
    19:00 +10°C° 0 mm 1 mps 679 mmHg 85%
    20:00 +9°C° 0 mm 1 mps 680 mmHg 86%
    21:00 +8°C° 0 mm 1 mps 680 mmHg 88%
    22:00 +8°C° 0 mm 1 mps 680 mmHg 89%
    23:00 +8°C° 0 mm 1 mps 680 mmHg 89%

    11 April, Saturday

    Time Temperature Precipitation Wind Pressure Humidity
    00:00 +7°C° 0 mm 1 mps 680 mmHg 90%
    01:00 +7°C° 0 mm 1 mps 680 mmHg 90%
    02:00 +7°C° 0 mm 1 mps 680 mmHg 90%
    03:00 +7°C° 0 mm 1 mps 680 mmHg 90%
    04:00 +7°C° 0 mm 1 mps 680 mmHg 89%
    05:00 +8°C° 0 mm 1 mps 680 mmHg 86%
    06:00 +9°C° 0 mm 1 mps 680 mmHg 83%
    07:00 +9°C° 0 mm 0 mps 681 mmHg 79%
    08:00 +12°C° 0 mm 1 mps 681 mmHg 71%
    09:00 +14°C° 0 mm 1 mps 681 mmHg 64%
    10:00 +16°C° 0 mm 1 mps 682 mmHg 56%
    11:00 +18°C° 0 mm 1 mps 681 mmHg 53%
    12:00 +18°C° 0 mm 1 mps 681 mmHg 50%
    13:00 +18°C° 0 mm 2 mps 681 mmHg 47%
    14:00 +17°C° 0 mm 2 mps 681 mmHg 50%
    15:00 +17°C° 0 mm 2 mps 680 mmHg 53%
    16:00 +16°C° 0 mm 2 mps 680 mmHg 55%
    17:00 +14°C° 0 mm 1 mps 680 mmHg 67%
    18:00 +12°C° 0 mm 1 mps 679 mmHg 79%
    19:00 +9°C° 0 mm 0 mps 679 mmHg 90%
    20:00 +9°C° 0 mm 1 mps 679 mmHg 91%
    21:00 +9°C° 0 mm 1 mps 679 mmHg 92%
    22:00 +8°C° 0 mm 1 mps 679 mmHg 93%
    23:00 +8°C° 0 mm 1 mps 679 mmHg 93%

    12 April, Sunday

    Time Temperature Precipitation Wind Pressure Humidity
    00:00 +8°C° 0 mm 1 mps 679 mmHg 92%
    01:00 +8°C° 0 mm 1 mps 679 mmHg 92%
    02:00 +7°C° 0 mm 1 mps 679 mmHg 92%
    03:00 +7°C° 0 mm 1 mps 678 mmHg 92%
    04:00 +7°C° 0 mm 1 mps 678 mmHg 91%
    05:00 +8°C° 0 mm 1 mps 678 mmHg 88%
    06:00 +9°C° 0 mm 1 mps 678 mmHg 85%
    07:00 +10°C° 0 mm 1 mps 678 mmHg 81%
    08:00 +12°C° 0.1 mm 1 mps 679 mmHg 74%
    09:00 +15°C° 0.1 mm 1 mps 679 mmHg 66%
    10:00 +16°C° 0.1 mm 0 mps 679 mmHg 58%
    11:00 +18°C° 0.4 mm 1 mps 678 mmHg 59%
    12:00 +18°C° 0.4 mm 1 mps 678 mmHg 59%
    13:00 +18°C° 0.4 mm 1 mps 677 mmHg 59%
    14:00 +16°C° 1 mm 1 mps 676 mmHg 64%
    15:00 +16°C° 1 mm 1 mps 676 mmHg 70%
    16:00 +15°C° 1 mm 1 mps 675 mmHg 75%
    17:00 +14°C° 0.9 mm 1 mps 674 mmHg 80%
    18:00 +12°C° 0.9 mm 1 mps 674 mmHg 85%
    19:00 +11°C° 0.9 mm 1 mps 673 mmHg 90%
    20:00 +10°C° 0.5 mm 1 mps 673 mmHg 91%
    21:00 +10°C° 0.5 mm 1 mps 673 mmHg 92%
    22:00 +9°C° 0.5 mm 1 mps 673 mmHg 93%
    23:00 +9°C° 0.3 mm 1 mps 673 mmHg 93%

    13 April, Monday

    Time Temperature Precipitation Wind Pressure Humidity
    00:00 +9°C° 0.3 mm 1 mps 673 mmHg 93%
    01:00 +9°C° 0.3 mm 1 mps 673 mmHg 93%
    02:00 +9°C° 0.2 mm 1 mps 673 mmHg 92%
    03:00 +8°C° 0.2 mm 1 mps 672 mmHg 92%
    04:00 +7°C° 0.2 mm 2 mps 672 mmHg 91%
    05:00 +7°C° 0 mm 2 mps 672 mmHg 90%
    06:00 +8°C° 0 mm 2 mps 672 mmHg 88%
    07:00 +8°C° 0 mm 2 mps 672 mmHg 86%
    08:00 +11°C° 0.1 mm 1 mps 672 mmHg 78%
    09:00 +13°C° 0.1 mm 1 mps 673 mmHg 69%
    10:00 +15°C° 0.1 mm 1 mps 673 mmHg 61%
    11:00 +14°C° 0.4 mm 1 mps 673 mmHg 63%
    12:00 +14°C° 0.4 mm 2 mps 673 mmHg 65%
    13:00 +14°C° 0.4 mm 2 mps 673 mmHg 68%
    14:00 +13°C° 0.5 mm 2 mps 672 mmHg 73%
    15:00 +10°C° 0.5 mm 2 mps 672 mmHg 79%
    16:00 +9°C° 0.5 mm 2 mps 672 mmHg 85%
    17:00 +10°C° 0.5 mm 1 mps 672 mmHg 88%
    18:00 +9°C° 0.5 mm 1 mps 672 mmHg 91%
    19:00 +8°C° 0.5 mm 1 mps 672 mmHg 95%
    20:00 +8°C° 0.4 mm 1 mps 673 mmHg 95%
    21:00 +8°C° 0.4 mm 1 mps 673 mmHg 94%
    22:00 +8°C° 0.4 mm 1 mps 674 mmHg 94%
    23:00 +7°C° 0.3 mm 1 mps 674 mmHg 95%
    Show more